Regional Weather Roundup
Issued by NWS Boston, MA

Home | Current Version | Previous Version | Text Only | Print | Product List | Glossary On
Versions: 1 2 3 4 5 6 7 8 9 10 11 12 13 14 15 16 17 18 19 20 21 22 23 24 25 26 27 28 29 30 31 32 33 34 35 36 37 38 39 40 41 42 43 44 45 46 47 48 49 50
000
ASUS41 KBOX 230910
RWRBOX

REGIONAL WEATHER ROUNDUP
NATIONAL WEATHER SERVICE TAUNTON MA
500 AM EDT SAT MAY 23 2015

NOTE:  "FAIR" INDICATES FEW OR NO CLOUDS BELOW 12,000 FEET WITH NO
SIGNIFICANT WEATHER AND/OR OBSTRUCTIONS TO VISIBILITY.  THE FOLLOWING
OBSERVATION LOCATIONS DO NOT REPORT PRESENT WEATHER...PROVINCETOWN...
SMITHFIELD...BLOCK ISLAND...KEENE...AND OXFORD.

MAZALL-231000-
EASTERN MASSACHUSETTS

CITY           SKY/WX    TMP DP  RH WIND       PRES   REMARKS
BOSTON         PTCLDY    45  27  49 NW15G22   30.22R
BEVERLY        CLEAR     43  28  55 NW12      30.19R
LAWRENCE       CLEAR     42  25  50 NW10G20   30.22R
BEDFORD        CLEAR     40  26  57 NW8       30.21R
BLUE HILL        N/A     41  28  60 NW12G22   30.19R
NORWOOD        CLEAR     44  29  55 NW7       30.22R
MARSHFIELD     CLEAR     46  32  57 NW5       30.21R
PLYMOUTH       CLEAR     46  32  58 NW10      30.20R
TAUNTON        PTCLDY    47  31  53 NW8       30.21R
NEW BEDFORD    PTCLDY    46  32  58 NW5       30.20R
$$

MAZALL-231000-
CAPE COD AND THE ISLANDS

CITY           SKY/WX    TMP DP  RH WIND       PRES   REMARKS
FALMOUTH       CLEAR     46  32  57 NW9G18    30.19R
HYANNIS        CLEAR     49  34  56 NW14G24   30.16R
CHATHAM        CLEAR     49  33  54 NW9G21    30.17R
PROVINCETOWN   CLEAR     48  34  57 NW18G26   30.18R
NANTUCKET      CLEAR     52  38  58 N16       30.16R
MARTHAS VNYRD  CLEAR     49  32  52 N9        30.19R
$$

MAZALL-231000-
CENTRAL AND WESTERN MASSACHUSETTS

CITY           SKY/WX    TMP DP  RH WIND       PRES   REMARKS
WORCESTER      CLEAR     40  28  62 NW9       30.21R
FITCHBURG      CLEAR     40  26  57 NW6       30.23R
ORANGE         CLEAR     39  25  57 N6        30.23R
SPRINGFIELD    CLEAR     42  29  59 NW8       30.24R
WESTFIELD      CLEAR     42  28  57 W9        30.25R
NORTH ADAMS    CLEAR     38  20  48 W5        30.25R
PITTSFIELD     CLEAR     36  20  52 NW8       30.23R WCI  30
$$

RIZALL-231000-
RHODE ISLAND

CITY           SKY/WX    TMP DP  RH WIND       PRES   REMARKS
PROVIDENCE     MOCLDY    48  33  56 N10G16    30.23R
NEWPORT        PTCLDY    48  31  51 NW8       30.21R
BLOCK ISLAND   CLEAR     50  28  43 NW14G24   30.24R
SMITHFIELD     CLEAR     43  27  52 NW6       30.21R
WESTERLY       CLEAR     48  28  46 W5        30.25R
$$

CTZALL-231000-
CONNECTICUT

CITY           SKY/WX    TMP DP  RH WIND       PRES   REMARKS
BRADLEY INTL   PTCLDY    44  28  53 W8        30.26R
HARTFORD       CLEAR     47  27  45 VRB6      30.27R
BRIDGEPORT     CLEAR     49  29  46 NW7       30.29R
DANBURY        CLEAR     43  29  57 NW6       30.31R
GROTON         CLEAR     49  28  44 NW12      30.25R
NEW HAVEN      CLEAR     48  30  49 N6        30.29R
CHESTER        FAIR      45  30  57 W3        30.28R
MERIDEN        CLEAR     45  29  53 NW5       30.28R
WILLIMANTIC    CLEAR     46  29  51 VRB5      30.25R
OXFORD         CLEAR     43  27  52 CALM      30.30R
$$

MEZ002-015-021-024-NHZ003-005-008-011-012-014-VTZ005-008-231000-
NORTHERN NEW ENGLAND

CITY           SKY/WX    TMP DP  RH WIND       PRES   REMARKS
PORTLAND ME    CLEAR     40  19  43 SW6       30.15R
BANGOR ME      PTCLDY    37  23  56 W8        30.06R WCI  31
CONCORD NH     CLEAR     39  21  48 NW9       30.19R
MANCHESTER NH  CLEAR     42  22  44 W7        30.20R
NASHUA NH      CLEAR     41  26  55 NW8       30.22R
PORTSMOUTH NH  PTCLDY    41  19  41 W7        30.18R
JAFFREY NH     CLEAR     35  23  61 CALM      30.21R
KEENE NH       CLEAR     36  28  75 CALM      30.23R
BURLINGTON VT  CLEAR     39  23  52 W8        30.24R
MT. WASHINGTON FOG       10  10 100 NW54G63     N/A  VSB 1/16WCI -17
$$

NYZ052-076-231000-
EASTERN NEW YORK

CITY           SKY/WX    TMP DP  RH WIND       PRES   REMARKS
ALBANY         CLEAR     39  23  52 NW8       30.29R
NEW YORK CITY  CLEAR     52  28  39 NW15      30.29R
$$

ANZALL-231000-
MARINE OBSERVATIONS

STATION/POSITION TIME  TEMP    WIND        PRES    VSBY  WAVE
                       AIR SEA DIR/SP/G                  HT/PER
                 (UTC) (F)     (DEG/KT/KT) (MB)    (MI)  (FT/S)
BOSTON BUOY      0850   47 52  310/ 17/ 21   N/A           3/ 4
BUZZARDS BAY     0900          330/ 18/ 20   N/A
NANTUCKET SOUND  0850   53 55  330/ 19/ 21   N/A           2/ 4
MASS BAY-STELLWA 0804   47 51  300/ 16/ 19   N/A    1 7/8  2/ 3
ISLE OF SHOALS   0900   43     300/ 19/ 22   N/A
S OF BLOCK IS    0808      53                N/A           3/ 8
$$

......................KEY.........................
  SKY/WX - SKY CONDITION/PRESENT WEATHER
  TMP    - TEMPERATURE IN FAHRENHEIT
  DWPT   - DEWPOINT IN FAHRENHEIT
  RH     - RELATIVE HUMIDITY IN PERCENT
  WIND   - DIRECTION AND SPEED IN MPH
  PRES   - MEAN SEA LEVEL PRESSURE IN INCHES OF HG
  WCI    - WIND CHILL INDEX
  VSB    - VISIBILITY IN MILES
  HX     - HEAT INDEX
  TC     - TEMPERATURE IN CELSIUS
  VRB    - VARIABLE WIND DIRECTION
  N/A    - NOT AVAILABLE


USA.gov is the U.S. government's official web portal to all federal, state and local government web resources and services.